Location: Grange Rosano
(44.4500°N, 6.9667°E)
Time: 19:15:29
(UTC+00:00)

Cosmos 1726 Rocket - Pass Details

Date: 26 May 2022
Orbit: 601 x 630 km, 82.5° (Epoch: 01 July)

Event Time Altitude Azimuth Distance (km) Brightness Sun altitude
Rises 03:07:33 0° 344° (NNW) 2,915 7.4 -7.7°
Reaches altitude 10° 03:09:53 10° 338° (NNW) 2,000 6.4 -7.4°
Maximum altitude 03:14:03 42° 268° (W) 890 4.0 -6.8°
Drops below altitude 10° 03:18:09 10° 198° (SSW) 1,967 5.6 -6.2°
Sets 03:20:26 0° 191° (S) 2,862 6.5 -5.9°
